Location: Bieujac
(44.5398°N, 0.1549°W)
Time: 02:29:36
(UTC+00:00)

STARLINK-69 - Pass Details

Date: 17 November 2019
Orbit: 529 x 530 km, 53.0° (Epoch: 12 December)

Event Time Altitude Azimuth Distance (km) Brightness Sun altitude
Exits shadow 04:57:49 20° 193° (SSW) 1,265 5.4 -21.5°
Drops below altitude 10° 05:03:51 10° 69° (ENE) 1,794 7.1 -20.4°
Enters shadow 06:04:10 -64° 239° (WSW) 12,053 10.3 -9.9°
Maximum altitude 06:39:57 46° 336° (NNW) 732 4.0 -3.9°
